"Pseudo-MPEC" for CCWDAD2

Created 2025 Feb 5 2:31:07 UT using Find_Orb

Click here for an explanation of pseudo-MPECs

 
 Astrometry: 
     CCWDAD2 1C2025 01 21.37607 10 40 09.74 +34 40 25.8    ~251V       VNEOCPG96
     CCWDAD2 1C2025 01 21.39384 10 40 11.58 +34 39 55.7    ~251V 21.9 GVNEOCPG96
     CCWDAD2*1C2025 02 02.41783511 00 07.448+27 20 55.61   ~22BV 22.35GVNEOCPG96
     CCWDAD2 1C2025 02 02.42298411 00 07.690+27 20 41.86   ~22BV 20.93GVNEOCPG96
     CCWDAD2 1C2025 02 02.42812611 00 07.938+27 20 28.36   ~22BV 20.74GVNEOCPG96
     CCWDAD2 1C2025 02 02.43325811 00 08.233+27 20 14.71   ~22BV 21.21GVNEOCPG96
     CCWDAD2 KC2025 02 02.51915411 00 12.791+27 16 23.84   ~22DH 21.18GVNEOCPI52
     CCWDAD2 KC2025 02 02.52120911 00 12.870+27 16 18.08   ~22DH 21.32GVNEOCPI52
     CCWDAD2 KC2025 02 02.52325711 00 13.021+27 16 12.11   ~22DH 20.83GVNEOCPI52
     CCWDAD2 KC2025 02 02.52529711 00 13.122+27 16 07.07   ~22DH 20.59GVNEOCPI52
     CCWDAD2 1C2025 02 03.01032011 00 51.610+26 54 33.70   ~2312 20.7 GXNEOCP033
     CCWDAD2 1C2025 02 03.01284011 00 51.757+26 54 25.90   ~2312 20.7 GXNEOCP033
     CCWDAD2 1C2025 02 03.01535011 00 51.908+26 54 19.70   ~2312 20.6 GXNEOCP033
     CCWDAD2 1C2025 02 03.01787011 00 52.027+26 54 13.20   ~2312 20.8 GXNEOCP033
     CCWDAD2 KC2025 02 03.52892011 01 24.384+26 31 36.26   ~23DH 21.54GVNEOCPI52
     CCWDAD2 KC2025 02 03.53193011 01 24.611+26 31 27.55   ~23DH       VNEOCPI52
     CCWDAD2 KC2025 02 03.53793511 01 24.892+26 31 11.60   ~23DH 22.99GVNEOCPI52
     CCWDAD2 KC2025 02 05.01364011 03 05.79 +25 23 40.0    ~2512 21.3 GVNEOCPL01
     CCWDAD2 KC2025 02 05.01729611 03 05.93 +25 23 30.1    ~2512 21.1 GVNEOCPL01
     CCWDAD2 IC2025 02 05.02134711 03 06.12 +25 23 19.0    ~2512 20.8 GVNEOCPL01

Station data:
(033) Karl Schwarzschild Observatory, Tautenburg  (N50.980139 E11.711240)
   Germany.  Observer B. Stecklum. 1.34-m f/3 Schmidt + CCD.
(G96) Mt. Lemmon Survey  (N32.442729 W110.788720)  US/Arizona.  Observer E.
   J. Christensen.  + 10K CCD.
(I52) Steward Observatory, Mt. Lemmon Station  (N32.442570 W110.788920)
   US/Arizona.  Observers T. A. Pruyne, B. M. Africano, E. J. Christensen, G.
   A. Farneth, D. C. Fuls, A. R. Gibbs, A. D. Grauer, H. Gröller, J. A.
   Johnson, R. A. Kowalski, S. M. Larson, G. J. Leonard, D. Rankin, R. L.
   Seaman, F. C. Shelly, K. W. Wierzchoś. 1.0-m prime focus + CCD.
(L01) Višnjan Observatory, Tičan  (N45.290897 E13.749300)  Croatia.
   Observers K. Korlević, D. Pujagic, V. Dobos. Measurers D. Pujagic, K.
   Korlević. 1.0-m f/2.9 reflector + CCD.

Orbital elements:  CCWDAD2
   Perihelion 2025 Feb 6.96037 +/- 0.00827 TT = 23:02:55 (JD 2460713.46037)
Epoch 2025 Feb  5.0 TT = JDT 2460711.5   Earth MOID: 0.1345      AutoNEOCP
M 359.06059576 +/- 0.0034           (J2000 ecliptic)
n   0.47919746 +/- 0.000537         Peri.  159.73415 +/- 0.009
a   1.61730913 +/- 0.00121          Node   340.63913 +/- 0.0032
e   0.3087416 +/- 0.000416          Incl.    6.07843 +/- 0.006
P   2.057/751.242d         H 24.21  G  0.15   U  7.7
q 1.11797844 +/- 0.000162    Q 2.11663981 +/- 0.00225
From 20 observations 2025 Jan. 21-Feb. 5; mean residual 0".26
Residuals in arcseconds: 
250121 G96  .06-  .27-    250202 I52  .17-  .03-    250203 I52  .41-  .23-    
250121 G96  .04+  .26+    250202 I52  .30+  .42-    250203 I52  .48+  .52-    
250202 G96  .15+  .01+    250202 I52  .10+  .11+    250203 I52  .09-  .36+    
250202 G96  .08-  .15-    250203 033  .25-  .86+    250205 L01  .11+  .21-    
250202 G96  .24-  .05-    250203 033  .12-  .31-    250205 L01  .15-  .01+    
250202 G96  .23+  .10-    250203 033  .08+  .10+    250205 L01  .03+  .13+    
250202 I52  .32+  .12+    250203 033  .15-  .23+    

Ephemerides (geocentric):
Date (UTC) HH   RA             Dec           delta  r     elong  mag " sig PA
---- --------  ------------   ------------  ------ ------ -----  --- --------
2025 02 05 03  11 03 12.109   +25 18 50.19  .14607 1.1181 153.0 21.4 .204  74
2025 02 05 04  11 03 14.708   +25 16 53.70  .14603 1.1181 153.0 21.4 .210  74
2025 02 05 05  11 03 17.300   +25 14 57.11  .14598 1.1181 153.1 21.4 .216  74
2025 02 05 06  11 03 19.884   +25 13 00.42  .14594 1.1181 153.1 21.4 .222  74
2025 02 05 07  11 03 22.462   +25 11 03.61  .14589 1.1181 153.1 21.4 .228  74
2025 02 05 08  11 03 25.033   +25 09 06.71  .14584 1.1181 153.2 21.4 .235  74
2025 02 05 09  11 03 27.597   +25 07 09.69  .14580 1.1181 153.2 21.4 .241  74
2025 02 05 10  11 03 30.153   +25 05 12.57  .14575 1.1181 153.2 21.4 .247  74
2025 02 05 11  11 03 32.703   +25 03 15.34  .14571 1.1181 153.3 21.4 .253  74
2025 02 05 12  11 03 35.246   +25 01 18.01  .14566 1.1181 153.3 21.4 .259  74
2025 02 05 13  11 03 37.781   +24 59 20.58  .14562 1.1181 153.3 21.4 .266  74
2025 02 05 14  11 03 40.310   +24 57 23.03  .14557 1.1180 153.3 21.4 .272  73
2025 02 05 15  11 03 42.831   +24 55 25.39  .14553 1.1180 153.4 21.4 .278  73
2025 02 05 16  11 03 45.346   +24 53 27.64  .14548 1.1180 153.4 21.4 .285  73
2025 02 05 17  11 03 47.853   +24 51 29.78  .14544 1.1180 153.4 21.4 .291  73
2025 02 05 18  11 03 50.354   +24 49 31.82  .14539 1.1180 153.5 21.4 .297  73
2025 02 05 19  11 03 52.847   +24 47 33.76  .14535 1.1180 153.5 21.4 .304  73
2025 02 05 20  11 03 55.334   +24 45 35.60  .14530 1.1180 153.5 21.4 .310  73
2025 02 05 21  11 03 57.813   +24 43 37.33  .14526 1.1180 153.6 21.4 .317  73
2025 02 05 22  11 04 00.286   +24 41 38.95  .14522 1.1180 153.6 21.4 .323  73
2025 02 05 23  11 04 02.751   +24 39 40.48  .14517 1.1180 153.6 21.4 .330  73
2025 02 06 00  11 04 05.210   +24 37 41.90  .14513 1.1180 153.7 21.4 .337  73
2025 02 06 01  11 04 07.661   +24 35 43.22  .14509 1.1180 153.7 21.3 .343  73
2025 02 06 02  11 04 10.106   +24 33 44.44  .14504 1.1180 153.7 21.3 .350  73
2025 02 06 03  11 04 12.544   +24 31 45.55  .14500 1.1180 153.7 21.3 .357  73
2025 02 06 04  11 04 14.974   +24 29 46.57  .14496 1.1180 153.8 21.3 .363  73
2025 02 06 05  11 04 17.398   +24 27 47.48  .14491 1.1180 153.8 21.3 .370  73
2025 02 06 06  11 04 19.815   +24 25 48.29  .14487 1.1180 153.8 21.3 .377  73
2025 02 06 07  11 04 22.225   +24 23 49.00  .14483 1.1180 153.9 21.3 .383  73
2025 02 06 08  11 04 24.628   +24 21 49.61  .14479 1.1180 153.9 21.3 .390  73
2025 02 06 09  11 04 27.024   +24 19 50.12  .14474 1.1180 153.9 21.3 .397  72
2025 02 06 10  11 04 29.413   +24 17 50.52  .14470 1.1180 154.0 21.3 .404  72
2025 02 06 11  11 04 31.795   +24 15 50.83  .14466 1.1180 154.0 21.3 .411  72
2025 02 06 12  11 04 34.170   +24 13 51.04  .14462 1.1180 154.0 21.3 .418  72
2025 02 06 13  11 04 36.538   +24 11 51.15  .14458 1.1180 154.1 21.3 .425  72
2025 02 06 14  11 04 38.900   +24 09 51.15  .14453 1.1180 154.1 21.3 .432  72
2025 02 06 15  11 04 41.254   +24 07 51.06  .14449 1.1180 154.1 21.3 .439  72
2025 02 06 16  11 04 43.602   +24 05 50.87  .14445 1.1180 154.2 21.3 .446  72
2025 02 06 17  11 04 45.942   +24 03 50.58  .14441 1.1180 154.2 21.3 .453  72
2025 02 06 18  11 04 48.276   +24 01 50.20  .14437 1.1180 154.2 21.3 .460  72
2025 02 06 19  11 04 50.603   +23 59 49.71  .14433 1.1180 154.2 21.3 .467  72
2025 02 06 20  11 04 52.923   +23 57 49.13  .14429 1.1180 154.3 21.3 .474  72
2025 02 06 21  11 04 55.236   +23 55 48.45  .14425 1.1180 154.3 21.3 .481  72
2025 02 06 22  11 04 57.542   +23 53 47.67  .14421 1.1180 154.3 21.3 .488  72
2025 02 06 23  11 04 59.841   +23 51 46.79  .14417 1.1180 154.4 21.3 .496  72
2025 02 07 00  11 05 02.134   +23 49 45.82  .14413 1.1180 154.4 21.3 .503  72
2025 02 07 01  11 05 04.420   +23 47 44.75  .14409 1.1180 154.4 21.3 .510  72
2025 02 07 02  11 05 06.698   +23 45 43.58  .14405 1.1180 154.5 21.3 .517  72